TimeCDT,TemperatureF,Dew PointF,Humidity,Sea Level PressureIn,VisibilityMPH,Wind Direction,Wind SpeedMPH,Gust SpeedMPH,PrecipitationIn,Events,Conditions,WindDirDegrees,DateUTC
12:53 AM,73.9,72.0,93,30.06,9.0,Calm,Calm,-,N/A,,Mostly Cloudy,0,2013-07-19 05:53:00
1:53 AM,73.9,71.1,91,30.04,7.0,Calm,Calm,-,N/A,,Mostly Cloudy,0,2013-07-19 06:53:00
2:53 AM,75.0,71.1,87,30.04,10.0,NNE,3.5,-,N/A,,Partly Cloudy,20,2013-07-19 07:53:00
3:53 AM,73.0,71.1,93,30.05,7.0,Calm,Calm,-,N/A,,Partly Cloudy,0,2013-07-19 08:53:00
4:53 AM,73.0,71.1,93,30.05,7.0,Calm,Calm,-,N/A,,Partly Cloudy,0,2013-07-19 09:53:00
5:53 AM,72.0,71.1,97,30.06,8.0,South,3.5,-,N/A,,Partly Cloudy,180,2013-07-19 10:53:00
6:53 AM,73.4,71.6,94,30.08,6.0,Calm,Calm,-,N/A,,Mostly Cloudy,0,2013-07-19 11:53:00
7:53 AM,79.0,72.0,79,30.09,10.0,SSW,3.5,-,N/A,,Scattered Clouds,200,2013-07-19 12:53:00
8:53 AM,82.9,71.1,67,30.09,10.0,SW,4.6,-,N/A,,Scattered Clouds,220,2013-07-19 13:53:00
9:53 AM,86.0,70.0,59,30.09,10.0,SSW,5.8,-,N/A,,Scattered Clouds,210,2013-07-19 14:53:00
10:53 AM,88.0,70.0,55,30.09,10.0,SW,4.6,-,N/A,,Mostly Cloudy,230,2013-07-19 15:53:00
11:53 AM,87.1,69.1,55,30.07,10.0,West,5.8,-,N/A,,Mostly Cloudy,260,2013-07-19 16:53:00
12:53 PM,91.0,68.0,47,30.05,10.0,Variable,5.8,-,N/A,,Scattered Clouds,0,2013-07-19 17:53:00
1:53 PM,90.0,69.1,50,30.02,10.0,SSW,6.9,-,N/A,,Mostly Cloudy,200,2013-07-19 18:53:00
2:53 PM,91.0,68.0,47,29.99,10.0,South,8.1,-,N/A,,Mostly Cloudy,170,2013-07-19 19:53:00
3:53 PM,91.9,68.0,45,29.98,10.0,SSW,4.6,-,N/A,,Mostly Cloudy,200,2013-07-19 20:53:00
4:53 PM,91.9,66.9,44,29.95,10.0,WSW,5.8,-,N/A,,Scattered Clouds,240,2013-07-19 21:53:00
5:53 PM,90.0,66.0,45,29.94,10.0,SSW,5.8,-,N/A,,Scattered Clouds,210,2013-07-19 22:53:00
6:53 PM,89.1,66.9,48,29.95,10.0,SW,5.8,-,N/A,,Partly Cloudy,220,2013-07-19 23:53:00
7:53 PM,86.0,68.0,55,29.96,10.0,SW,4.6,-,N/A,,Scattered Clouds,220,2013-07-20 00:53:00
8:53 PM,82.9,69.1,63,29.97,10.0,South,3.5,-,N/A,,Scattered Clouds,190,2013-07-20 01:53:00
9:53 PM,81.0,70.0,69,29.98,10.0,South,3.5,-,N/A,,Scattered Clouds,170,2013-07-20 02:53:00
10:53 PM,81.0,70.0,69,29.99,10.0,SW,3.5,-,N/A,,Partly Cloudy,220,2013-07-20 03:53:00
11:53 PM,79.0,70.0,74,29.99,10.0,Calm,Calm,-,N/A,,Clear,0,2013-07-20 04:53:00